Tracking 19634 objects as of 21-May-2019
HD Live streaming from Space Station
objects crossing your sky now

IRIDIUM 70


IRIDIUM 70 is no longer on orbit
IRIDIUM 70 is classified as:


NORAD ID: 25342
Int'l Code: 1998-032A
Perigee: N/A
Apogee: N/A
Inclination: N/A
Period: N/A
Semi major axis: N/A
RCS: N/A
Launch date: May 17, 1998
Source: United States (US)
Launch site: AIR FORCE WESTERN TEST RANGE (AFWTR)
Decay date: 2018-10-11
aabbcc
Your satellite tracking list
Your tracking list is empty




NASA's NSSDC Master Catalog

Two Line Element Set (TLE):
1 25342U 98032A   18284.21707279  .16594638 -12525-5  18070-3 0  9998
2 25342  86.5503  21.7232 0063640 282.3994  77.0197 16.42517631 68335
Source of the keplerian elements: AFSPC